TimeEDT,TemperatureF,Dew PointF,Humidity,Sea Level PressureIn,VisibilityMPH,Wind Direction,Wind SpeedMPH,Gust SpeedMPH,PrecipitationIn,Events,Conditions,WindDirDegrees,DateUTC
12:53 AM,79.0,73.9,84,29.94,10.0,Calm,Calm,-,N/A,,Clear,0,2012-09-08 04:53:00
1:53 AM,78.1,73.9,87,29.92,10.0,Calm,Calm,-,N/A,,Clear,0,2012-09-08 05:53:00
2:53 AM,78.1,73.9,87,29.91,10.0,South,3.5,-,N/A,,Clear,180,2012-09-08 06:53:00
3:53 AM,77.0,73.9,90,29.91,10.0,SSE,4.6,-,N/A,,Clear,150,2012-09-08 07:53:00
4:53 AM,77.0,73.9,90,29.92,10.0,Calm,Calm,-,N/A,,Clear,0,2012-09-08 08:53:00
5:53 AM,77.0,73.9,90,29.94,10.0,SSE,3.5,-,N/A,,Clear,150,2012-09-08 09:53:00
6:53 AM,77.0,73.9,90,29.95,9.0,Calm,Calm,-,N/A,,Partly Cloudy,0,2012-09-08 10:53:00
7:53 AM,78.1,75.0,90,29.97,9.0,Calm,Calm,-,N/A,,Clear,0,2012-09-08 11:53:00
8:53 AM,81.0,75.0,82,29.98,10.0,SSE,4.6,-,N/A,,Clear,160,2012-09-08 12:53:00
9:53 AM,84.9,75.0,72,29.99,10.0,SSE,3.5,-,N/A,,Partly Cloudy,150,2012-09-08 13:53:00
10:19 AM,84.2,73.4,70,29.98,10.0,SW,5.8,-,N/A,,Mostly Cloudy,220,2012-09-08 14:19:00
10:28 AM,86.0,73.4,66,29.98,10.0,Variable,3.5,-,N/A,,Scattered Clouds,0,2012-09-08 14:28:00
10:53 AM,87.1,73.0,63,29.99,10.0,SW,9.2,-,N/A,,Scattered Clouds,230,2012-09-08 14:53:00
11:53 AM,88.0,73.0,61,29.98,10.0,SW,9.2,-,N/A,,Partly Cloudy,220,2012-09-08 15:53:00
12:53 PM,88.0,73.0,61,29.97,10.0,WSW,9.2,16.1,N/A,,Scattered Clouds,240,2012-09-08 16:53:00
1:53 PM,89.1,72.0,57,29.95,10.0,SW,8.1,20.7,N/A,,Partly Cloudy,220,2012-09-08 17:53:00
2:53 PM,89.1,73.0,59,29.93,10.0,SW,12.7,20.7,N/A,,Partly Cloudy,230,2012-09-08 18:53:00
3:53 PM,88.0,73.0,61,29.91,10.0,SW,12.7,20.7,N/A,,Partly Cloudy,230,2012-09-08 19:53:00
4:53 PM,88.0,72.0,59,29.90,10.0,SW,10.4,-,N/A,,Clear,230,2012-09-08 20:53:00
5:53 PM,87.1,72.0,61,29.90,10.0,SW,9.2,-,N/A,,Clear,230,2012-09-08 21:53:00
6:53 PM,84.9,72.0,65,29.92,10.0,WSW,9.2,-,N/A,,Partly Cloudy,240,2012-09-08 22:53:00
7:53 PM,84.0,73.0,69,29.92,10.0,SW,6.9,-,N/A,,Clear,230,2012-09-08 23:53:00
8:53 PM,82.9,73.0,72,29.93,10.0,SW,4.6,-,N/A,,Clear,230,2012-09-09 00:53:00
9:53 PM,82.0,73.9,76,29.94,10.0,SW,4.6,-,N/A,,Clear,220,2012-09-09 01:53:00
10:53 PM,82.0,73.9,76,29.94,10.0,SW,3.5,-,N/A,,Clear,230,2012-09-09 02:53:00
11:53 PM,81.0,73.0,77,29.93,10.0,Calm,Calm,-,N/A,,Clear,0,2012-09-09 03:53:00